Tracking 31023 objects as of 19-Jul-2025
HD Live streaming from Space Station
objects crossing your sky now

MIDAS 4 DEB

Track MIDAS 4 DEB now!
10-day predictions


NORAD ID: 194
Int'l Code: 1961-028C
Perigee: 3,209.1 km
Apogee: 4,019.3 km
Inclination: 95.8 °
Period: 165.5 minutes
Semi major axis: 9985 km
RCS: 0.6373 m2 (medium)
Launch date: October 21, 1961
Source: United States (US)
Launch site: AIR FORCE WESTERN TEST RANGE (AFWTR)

Note: This is SATELLITE DEBRIS
Your satellite tracking list
Your tracking list is empty




NASA's NSSDC Master Catalog

Two Line Element Set (TLE):
1 00194U 61028C   25199.88785235  .00000014  00000-0  69837-2 0  9993
2 00194  95.8184 178.3169 0405734 149.6901 212.8092  8.70095560 24144
Source of the keplerian elements: AFSPC